{"data":{"norad_id":62913,"epoch":"2026-09-21T16:13:18.932448Z","epoch_age_seconds":66480,"freshness":"FRESH","line1":"1 62913U 25027G   26264.67591357  .00154833  00000+0  11865-2 0  9996","line2":"2 62913  42.9991 246.5060 0000778  56.3551 303.7390 15.70866799 93978","mean_motion":15.70866799,"eccentricity":7.78e-5,"inclination_deg":42.9991,"raan_deg":246.506,"arg_perigee_deg":56.3551,"mean_anomaly_deg":303.739,"bstar":0.0011865,"rev_number":9397,"period_min":91.669134576954,"perigee_km":355.89451768473,"apogee_km":356.94241451526,"semimajor_km":6734.5554661,"source":"CELESTRAK","updated_at":"2026-09-22T09:00:49.707683Z"}}